This demonstration page uses our WeatherBlox Daily Observations layout. Learn more.

Left ArrowRight Arrow

Hourly Observations for May 21, 2022

Temp ( °F °C ) Dew Point ( °F °C ) Humidity (%) Winds ( mph kmh ) Pressure ( in mb ) Visibility ( mi km ) Precip ( " mm )
12:53 am 00:53 Clear 77 25 64 17.8 64 64 SSW 5 7 30.02 1017 10 16 0.00 0.00
1:53 am 01:53 Clear 75 23.9 64 17.8 69 69 Calm 30.02 1017 10 16 0.00 0.00
2:53 am 02:53 Clear 73 22.8 65 18.3 76 76 Calm 30.01 1016 10 16 0.00 0.00
3:53 am 03:53 Clear 72 22.2 66 18.9 82 82 SW 3 6 30.03 1017 10 16 0.00 0.00
4:53 am 04:53 Clear 72 22.2 66 18.9 82 82 SSW 3 6 30.04 1017 10 16 0.00 0.00
5:53 am 05:53 Mostly Clear 72 22.2 67 19.4 84 84 Calm 30.06 1018 10 16 0.00 0.00
6:05 am 06:05 Mostly Cloudy 72 22.2 67 19.4 84 84 SW 3 6 30.07 1018 10 16 0.00 0.00
6:37 am 06:37 Cloudy 72 22.2 67 19.4 84 84 VRB 5 7 30.07 1018 10 16 0.00 0.00
6:53 am 06:53 Cloudy 72 22.2 67 19.4 84 84 Calm 30.08 1019 10 16 0.00 0.00
7:53 am 07:53 Cloudy 73 22.8 68 20 84 84 SSW 5 7 30.09 1019 10 16 0.00 0.00
8:53 am 08:53 Cloudy 74 23.3 68 20 82 82 SSW 7 11 30.12 1020 10 16 0.00 0.00
9:53 am 09:53 Mostly Cloudy 75 23.9 68 20 79 79 W 7 11 30.13 1020 10 16 0.00 0.00
10:40 am 10:40 Cloudy 76 24.4 69 20.6 79 79 SW 5 7 30.13 1020 10 16 0.00 0.00
10:53 am 10:53 Cloudy 76 24.4 68 20 77 77 WSW 7 11 30.14 1021 10 16 0.00 0.00
11:35 am 11:35 Partly Cloudy 80 26.7 69 20.6 69 69 W 9 15 30.14 1021 10 16 0.00 0.00
11:48 am 11:48 Mostly Cloudy 79 26 70 21 74 74 VRB 6 9 30.15 1021 10 16 0.00 0.00
11:53 am 11:53 Mostly Cloudy 80 26.7 69 20.6 69 69 W 8 13 30.15 1021 10 16 0.00 0.00
12:05 pm 12:05 Mostly Cloudy 81 27.2 69 20.6 67 67 S 8 13 30.14 1021 10 16 0.00 0.00
12:53 pm 12:53 Mostly Cloudy 82 27.8 67 19.4 60 60 S 10 17 30.14 1021 10 16 0.00 0.00
1:53 pm 13:53 Mostly Cloudy 83 28.3 67 19.4 59 59 SSW 7 11 30.13 1020 10 16 0.00 0.00
2:53 pm 14:53 Sunny 86 30 65 18.3 49 49 SW 8 13 30.10 1019 10 16 0.00 0.00
3:53 pm 15:53 Partly Cloudy 87 30.6 65 18.3 48 48 SW 8 13 30.08 1019 10 16 0.00 0.00
4:53 pm 16:53 Sunny 87 30.6 64 17.8 46 46 WSW 8 13 30.05 1018 10 16 0.00 0.00
5:53 pm 17:53 Sunny 86 30 62 16.7 45 45 SW 9 15 30.06 1018 10 16 0.00 0.00
6:53 pm 18:53 Sunny 86 30 60 15.6 42 42 SSW 8 13 30.07 1018 10 16 0.00 0.00
7:53 pm 19:53 Sunny 84 28.9 63 17.2 49 49 SSW 6 9 30.08 1019 10 16 0.00 0.00
8:53 pm 20:53 Clear 83 28.3 63 17.2 51 51 SSE 7 11 30.11 1020 10 16 0.00 0.00
9:53 pm 21:53 Mostly Clear 80 26.7 66 18.9 62 62 S 7 11 30.12 1020 10 16 0.00 0.00
10:53 pm 22:53 Clear 78 25.6 66 18.9 67 67 S 6 9 30.13 1020 10 16 0.00 0.00
11:53 pm 23:53 Clear 76 24.4 65 18.3 69 69 SW 5 7 30.13 1020 10 16 0.00 0.00

Powered by AerisWeather